SWA2424 KONT-KOAK

Flight info

Callsign SWA2424
Flight time N/A
Altitude 34000
Route SNSHN5 COREZ RGOOD EMZOH4
Aircraft B738/M-SDE2E3FGHIRWXY/LB1

Departure

Time 2026-05-08 20:16
Airport Ontario International Airport (KONT)

Arrival

Time N/A
Airport San Francisco Bay Oakland International Airport (KOAK)
Time Latitude Longitude Altitude Speed Heading
2026-05-08 20:04 34.05964 -117.58829 962 ft 0 kts 360°
2026-05-08 20:09 34.05962 -117.58829 944 ft 1 kts 360°
2026-05-08 20:09 34.05945 -117.58829 943 ft 3 kts 360°
2026-05-08 20:09 34.05938 -117.58829 943 ft 3 kts 360°
2026-05-08 20:10 34.05916 -117.58830 943 ft 3 kts 17°
2026-05-08 20:10 34.05898 -117.58855 944 ft 3 kts 87°
2026-05-08 20:10 34.05898 -117.58868 944 ft 1 kts 90°
2026-05-08 20:13 34.05898 -117.58845 944 ft 8 kts 90°
2026-05-08 20:13 34.05898 -117.58743 943 ft 13 kts 90°
2026-05-08 20:13 34.05897 -117.58635 944 ft 14 kts 90°
2026-05-08 20:14 34.05898 -117.58501 944 ft 18 kts 90°
2026-05-08 20:14 34.05898 -117.58359 944 ft 16 kts 90°
2026-05-08 20:14 34.05868 -117.58272 944 ft 10 kts 171°
2026-05-08 20:14 34.05811 -117.58272 944 ft 7 kts 180°
2026-05-08 20:15 34.05791 -117.58272 944 ft 0 kts 180°
2026-05-08 20:15 34.05785 -117.58272 944 ft 5 kts 180°
2026-05-08 20:15 34.05715 -117.58275 944 ft 12 kts 192°
2026-05-08 20:16 34.05689 -117.58377 946 ft 26 kts 270°
2026-05-08 20:16 34.05688 -117.58940 946 ft 107 kts 270°
2026-05-08 20:16 34.05687 -117.60101 1114 ft 156 kts 269°
2026-05-08 20:16 34.05658 -117.61477 1842 ft 173 kts 269°
2026-05-08 20:17 34.05665 -117.63023 2472 ft 198 kts 271°
2026-05-08 20:17 34.05716 -117.64697 3214 ft 204 kts 271°
2026-05-08 20:17 34.05764 -117.66426 3892 ft 208 kts 271°
2026-05-08 20:17 34.05807 -117.68157 4567 ft 211 kts 272°
2026-05-08 20:18 34.05852 -117.69949 5278 ft 216 kts 272°
2026-05-08 20:18 34.06091 -117.71751 5982 ft 220 kts 289°
2026-05-08 20:18 34.06584 -117.73509 6716 ft 223 kts 288°
2026-05-08 20:18 34.07035 -117.75330 7289 ft 236 kts 286°
2026-05-08 20:19 34.07527 -117.77379 7374 ft 269 kts 286°
2026-05-08 20:19 34.08310 -117.79419 7749 ft 270 kts 310°
2026-05-08 20:19 34.09639 -117.81079 8282 ft 280 kts 313°
2026-05-08 20:19 34.10973 -117.82816 8761 ft 283 kts 311°
2026-05-08 20:20 34.12274 -117.84602 9248 ft 284 kts 307°
2026-05-08 20:20 34.13454 -117.86526 9749 ft 286 kts 304°
2026-05-08 20:20 34.14594 -117.88504 10232 ft 291 kts 303°
2026-05-08 20:20 34.15787 -117.90583 10574 ft 312 kts 304°
2026-05-08 20:21 34.17052 -117.92774 10889 ft 331 kts 304°
2026-05-08 20:21 34.18409 -117.95106 11219 ft 348 kts 304°
2026-05-08 20:21 34.19839 -117.97553 11546 ft 364 kts 304°
2026-05-08 20:21 34.21329 -118.00091 11876 ft 377 kts 304°
2026-05-08 20:22 34.22870 -118.02712 12202 ft 385 kts 304°
2026-05-08 20:22 34.24430 -118.05363 12511 ft 388 kts 305°
2026-05-08 20:22 34.25994 -118.08023 12831 ft 388 kts 305°
2026-05-08 20:22 34.27028 -118.09784 13042 ft 388 kts 305°
2026-05-08 20:23 34.29143 -118.13330 13482 ft 389 kts 306°
2026-05-08 20:23 34.30782 -118.15933 13814 ft 389 kts 307°
2026-05-08 20:23 34.32421 -118.18489 14108 ft 390 kts 307°
2026-05-08 20:23 34.34085 -118.21080 14409 ft 390 kts 307°
2026-05-08 20:24 34.35754 -118.23687 14725 ft 392 kts 307°
2026-05-08 20:24 34.37427 -118.26313 15038 ft 395 kts 307°
2026-05-08 20:24 34.39105 -118.28956 15348 ft 398 kts 307°
2026-05-08 20:24 34.40792 -118.31620 15665 ft 400 kts 307°
2026-05-08 20:25 34.42491 -118.34309 15974 ft 402 kts 307°
2026-05-08 20:25 34.44193 -118.37007 16292 ft 404 kts 307°
2026-05-08 20:25 34.45901 -118.39717 16611 ft 406 kts 307°
2026-05-08 20:25 34.47615 -118.42440 16940 ft 407 kts 307°
2026-05-08 20:26 34.49333 -118.45172 17255 ft 408 kts 307°